Regional Weather Roundup
Issued by NWS

Home | Current Version | Previous Version | Text Only | Print | Product List | Glossary On
Versions: 1 2 3 4 5 6 7 8 9 10 11 12 13 14 15 16 17 18 19 20 21 22 23 24 25 26 27 28 29 30 31 32 33 34 35 36 37 38 39 40 41 42 43 44 45 46 47 48 49 50
000
ASUS43 KMKX 190000
RWRWI

WISCONSIN REGIONAL WEATHER ROUNDUP
NATIONAL WEATHER SERVICE MILWAUKEE/SULLIVAN WI
600 PM CST WED JAN 18 2017

NOTE: "FAIR" INDICATES FEW OR NO CLOUDS BELOW 12,000 FEET WITH NO
SIGNIFICANT WEATHER AND/OR OBSTRUCTIONS TO VISIBILITY.

WIZ001-002-006>008-014>016-023>028-190100-
NORTHWEST WISCONSIN

CITY           SKY/WX    TMP DP  RH WIND       PRES   REMARKS
SUPERIOR ARPT  CLOUDY    38  28  67 SW6       29.82R WCI  33
ASHLAND        CLOUDY    38  28  67 SW13      29.83R WCI  30
6HR MIN TEMP:  38; 6HR MAX TEMP:  44;

HAYWARD        CLOUDY    34  27  75 S5        29.85R WCI  30
6HR MIN TEMP:  34; 6HR MAX TEMP:  40;

SIREN          CLEAR     37  30  75 S3        29.85S
CUMBERLAND     CLEAR     32  28  86 S3        29.85F
RICE LAKE      CLEAR     33  29  86 S6        29.88S WCI  27
CHETEK         NOT AVBL
LADYSMITH      CLEAR     34  30  83 S5        29.88S WCI  30
6HR MIN TEMP:  34; 6HR MAX TEMP:  40;

EAU CLAIRE     NOT AVBL
MENOMONIE      CLEAR     35  31  86 MISG      29.89R
6HR MIN TEMP:  35; 6HR MAX TEMP:  39;

NEW RICHMOND   CLEAR     34  30  86 S5        29.87S WCI  30
OSCEOLA        CLEAR     35  31  87 S8        29.88S WCI  28
$$

WIZ003>005-009-010-017-018-190100-
NORTH CENTRAL WISCONSIN

CITY           SKY/WX    TMP DP  RH WIND       PRES   REMARKS
MANITOWISH WTR CLOUDY    36  28  74 SW8       29.83R WCI  29
ARBOR VITAE    CLOUDY    39  29  69 SW3       29.84R
WOODRUFF       CLOUDY    39  29  69 SW3       29.84R
RHINELANDER    CLOUDY    36  30  79 SW8       29.85S WCI  30
6HR MIN TEMP:  35; 6HR MAX TEMP:  41;

EAGLE RIVER    CLOUDY    36  28  71 SW6       29.83R WCI  31
LAND O LAKES   CLOUDY    39  27  61 SW3       29.82S
PHILLIPS       CLEAR     31  28  86 CALM      29.85S
6HR MIN TEMP:  31; 6HR MAX TEMP:  38;

TOMAHAWK       CLEAR     32  28  86 CALM      29.87R
MEDFORD        CLEAR     32  29  86 S6        29.87S WCI  27
MERRILL        CLEAR     32  30  92 CALM        N/A
6HR MIN TEMP:  32; 6HR MAX TEMP:  39;

$$

WIZ029-030-035-036-043>047-190100-
CENTRAL WISCONSIN

CITY           SKY/WX    TMP DP  RH WIND       PRES   REMARKS
WAUSAU         CLEAR     35  30  82 SW5       29.88R WCI  31
6HR MIN TEMP:  33; 6HR MAX TEMP:  39;

MOSINEE        CLEAR     34  30  86 SW6       29.90R WCI  29
MARSHFIELD     CLEAR     35  29  78 SW7       29.89R WCI  29
6HR MIN TEMP:  35; 6HR MAX TEMP:  41;

STEVENS POINT  CLEAR     34  29  84 SW8       29.91R WCI  27
WAUPACA        CLEAR     38  31  74 CALM      29.93R
WAUTOMA        CLEAR     35  30  82 S10       29.94F WCI  27
6HR MIN TEMP:  35; 6HR MAX TEMP:  41;

WISC RAPIDS    CLEAR     34  30  85 SW9       29.93R WCI  27
6HR MIN TEMP:  33; 6HR MAX TEMP:  41;

CAMP DOUGLAS   NOT AVBL
$$

WIZ011>013-019>022-031-037>040-048>050-190100-
NORTHEAST WISCONSIN

CITY           SKY/WX    TMP DP  RH WIND       PRES   REMARKS
ANTIGO         CLEAR     32  30  90 W6        29.87S WCI  27
SHAWANO        CLEAR     39  32  75 SW3       29.90R
OCONTO         CLEAR     35  31  87 SW5       29.90R WCI  31
STURGEON BAY   CLEAR     33  30  88 SW8       29.91R WCI  26
6HR MIN TEMP:  33; 6HR MAX TEMP:  37;

GREEN BAY      CLEAR     35  32  88 SW9       29.92R WCI  28
6HR MIN TEMP:  35; 6HR MAX TEMP:  37;

MANITOWOC      NOT AVBL
APPLETON       CLEAR     34  32  93 SW14      29.92R WCI  24
CLINTONVILLE   CLEAR     36  30  80 SW8       29.91R WCI  29
OSHKOSH        CLEAR     33  29  85 SW13      29.93F WCI  24
6HR MIN TEMP:  33; 6HR MAX TEMP:  35;

$$

WIZ032>034-041-042-053>061-190100-
SOUTHWEST WISCONSIN

CITY           SKY/WX    TMP DP  RH WIND       PRES   REMARKS
LA CROSSE      CLOUDY    36  30  79 S13       29.96S WCI  27
6HR MIN TEMP:  35; 6HR MAX TEMP:  38;

SPARTA         CLOUDY    32  30  92 S6        29.96S WCI  27
VIROQUA        CLOUDY    32  31  96 S10       29.96R WCI  23
6HR MIN TEMP:  31; 6HR MAX TEMP:  34;

BOSCOBEL       CLOUDY    34  31  88 SW9       30.02R WCI  27
6HR MIN TEMP:  34; 6HR MAX TEMP:  36;

PRAIRIE DU CHI CLOUDY    34  30  86 S5        30.02R WCI  30
PLATTEVILLE    CLOUDY    33  33 100 S13       30.02R WCI  23
$$

WIZ056-057-062-063-064-067-068-190100-
SOUTH CENTRAL WISCONSIN

CITY           SKY/WX    TMP DP  RH WIND       PRES   REMARKS
REEDSBURG      NOT AVBL
BARABOO/DELLS  CLOUDY    33  30  90 SW6       29.97S WCI  27
LONE ROCK      NOT AVBL
MINERAL POINT  CLOUDY    34  34 100 SW10      30.00S FOG     WCI  26
MADISON        CLOUDY    33  30  88 S8        30.01R WCI  26
6HR MIN TEMP:  33; 6HR MAX TEMP:  35;

MIDDLETON      CLOUDY    33  33  99 SW5       30.01R WCI  29
WATERTOWN      CLOUDY    32  32 100 SW10      30.01R WCI  24
MONROE         CLOUDY    34  32  93 S12       30.02R WCI  25
JANESVILLE     CLOUDY    36  36 100 SW8       30.04R WCI  29
$$

WIZ051-052-058>065-066-070>072-190100-
SOUTHEAST WISCONSIN

CITY           SKY/WX    TMP DP  RH WIND       PRES   REMARKS
MILWAUKEE      CLOUDY    34  30  85 SW15G22   30.02R WCI  24
6HR MIN TEMP:  34; 6HR MAX TEMP:  39;

WAUKESHA       CLOUDY    30  28  93 SW10G18   30.02R WCI  21
MILWAUKEE/TIMM MOCLDY    32  28  86 SW15G21   30.02R WCI  22
RACINE         CLOUDY    33  29  85 SW14G21   30.05R WCI  23
6HR MIN TEMP:  33; 6HR MAX TEMP:  36;

KENOSHA        CLOUDY    34  31  88 SW13      30.04S WCI  25
6HR MIN TEMP:  33; 6HR MAX TEMP:  36;

FOND DU LAC    CLEAR     33  29  85 SW15G23   29.95F WCI  23
6HR MIN TEMP:  33; 6HR MAX TEMP:  36;

SHEBOYGAN      CLEAR     34  29  82 SW13      29.95F WCI  25
6HR MIN TEMP:  34; 6HR MAX TEMP:  39;

WEST BEND      CLOUDY    32  32 100 SW8       29.98S WCI  25
JUNEAU         CLOUDY    32  30  94 S14       30.01R WCI  22
$$

LSZ147-162-190100-
LAKE SUPERIOR

STATION/POSITION TIME  TEMP    WIND        PRES    WAVE
                       AIR SEA DIR/SP/G            HT/PER
                 (UTC) (F)     (DEG/KT/KT) (MB)    (FT/S)
DEVILS ISLAND    2300   37     230/ 12/ 13 1009.5R
PORT WING        2330   39     200/  5/  6 1009.8R
SAXON HARBOR     2340   42     200/  9/ 12 1009.5R
$$

LMZ867-665-643>646-190100-
LAKE MICHIGAN

STATION/POSITION TIME  TEMP    WIND        PRES    WAVE
                       AIR SEA DIR/SP/G            HT/PER
                 (UTC) (F)     (DEG/KT/KT) (MB)    (FT/S)
NORTHPORT PIER   2340   35     210/  1/  9 1012.2R
SISTER BAY       2250   36     210/ 14/ 17   N/A
KEWAUNEE LAKESHO 2330   36     230/  5/  9 1012.8R
SHEBOYGAN LAKESH 2300   36     210/ 10/ 10 1014.9R
PORT WASHINGTON  2340   34     230/  5/  9 1016.6R
MILWAUKEE LAKESH 2330   34     230/ 11/ 12   N/A
KENOSHA   LAKESH 2300   34     210/ 10/ 13 1016.9
$$

TC  - TEMPERATURE IN CELSIUS
VSB - VISIBILITY IN STATUTE MILES
WCI - WIND CHILL INDEX
HX  - HEAT INDEX





USA.gov is the U.S. government's official web portal to all federal, state and local government web resources and services.